Weather History for Alva, OK

Change the Weather History Date:

Tuesday, November 19, 2013

  Actual Average Record
Temperature  
Mean Temperature 50 °F -  
Max Temperature 64 °F 58 °F 82 °F (2007)
Min Temperature 37 °F 35 °F 20 °F (1951)
Degree Days  
Heating Degree Days 14    
Moisture  
Dew Point 31 °F    
Average Humidity 48    
Maximum Humidity 75    
Minimum Humidity 30    
Precipitation  
Precipitation 0.00 in - - ()
Sea Level Pressure  
Sea Level Pressure 30.00 in    
Wind  
Wind Speed 13 mph (SSE)    
Max Wind Speed 29 mph    
Max Gust Speed 38 mph    
Visibility 10 miles    
Events      
Averages and records for this station are not official NWS values.
T = Trace of Precipitation, MM = Missing Value Source: NWS Daily Summary

Daily Weather History Graph

Daily Weather History Graph

Search for Another Location

Airport:

Trip Planner

Search our weather history database for the weather conditions in past years. The results will help you decide how hot, cold, wet, or windy it might be!

Date:

Astronomy

Nov. 19, 2013 Rise Set
Actual Time 7:17 AM CST 5:22 PM CST
Civil Twilight 6:49 AM CST 5:50 PM CST
Nautical Twilight 6:17 AM CST 6:22 PM CST
Astronomical Twilight 5:46 AM CST 6:52 PM CST
Moon 7:15 PM CST (11/19) 8:57 AM CST (11/19)
Length of Visible Light 11h 01m
Length of Day
10h 05m
Waning Gibbous, 96% of the Moon is Illuminated
Nov 19
Waning Gibbous
Nov 25
Last Quarter
Dec 2
New
Dec 9
First Quarter
Dec 17
Full

Hourly Weather History & Observations

Time (CST) Temp. Windchill Dew Point Humidity Pressure Visibility Wind Dir Wind Speed Gust Speed Precip Events Conditions
12:10 AM 44.6 °F 41.4 °F 28.4 °F 53% 30.19 in 10.0 mi SE 5.8 mph - N/A   Clear
12:30 AM 44.6 °F 41.4 °F 26.6 °F 49% 30.19 in 10.0 mi ESE 5.8 mph - N/A   Clear
12:50 AM 42.8 °F 40.1 °F 28.4 °F 57% 30.19 in 10.0 mi SE 4.6 mph - N/A   Clear
1:10 AM 42.8 °F - 28.4 °F 57% 30.19 in 10.0 mi Calm Calm - N/A   Clear
1:30 AM 41.0 °F 39.0 °F 28.4 °F 61% 30.18 in 10.0 mi ESE 3.5 mph - N/A   Clear
1:50 AM 42.8 °F 40.1 °F 28.4 °F 57% 30.17 in 10.0 mi ESE 4.6 mph - N/A   Clear
2:10 AM 42.8 °F 41.1 °F 28.4 °F 57% 30.17 in 10.0 mi ESE 3.5 mph - N/A   Clear
2:30 AM 44.6 °F 42.2 °F 28.4 °F 53% 30.17 in 10.0 mi East 4.6 mph - N/A   Clear
2:50 AM 41.0 °F 37.1 °F 28.4 °F 61% 30.16 in 10.0 mi East 5.8 mph - N/A   Clear
3:10 AM 41.0 °F 37.1 °F 28.4 °F 61% 30.16 in 10.0 mi ENE 5.8 mph - N/A   Clear
3:30 AM 41.0 °F 37.1 °F 28.4 °F 61% 30.16 in 10.0 mi East 5.8 mph - N/A   Clear
3:50 AM 42.8 °F 39.3 °F 28.4 °F 57% 30.15 in 10.0 mi East 5.8 mph - N/A   Clear
4:10 AM 41.0 °F 37.1 °F 28.4 °F 61% 30.15 in 10.0 mi ENE 5.8 mph - N/A   Clear
4:30 AM 41.0 °F 37.1 °F 28.4 °F 61% 30.14 in 10.0 mi East 5.8 mph - N/A   Clear
4:50 AM 41.0 °F 38.0 °F 28.4 °F 61% 30.14 in 10.0 mi East 4.6 mph - N/A   Clear
5:10 AM 41.0 °F 37.1 °F 28.4 °F 61% 30.14 in 10.0 mi ESE 5.8 mph - N/A   Mostly Cloudy
5:30 AM 39.2 °F 35.0 °F 28.4 °F 65% 30.13 in 10.0 mi SE 5.8 mph - N/A   Overcast
5:50 AM 39.2 °F 35.0 °F 28.4 °F 65% 30.12 in 10.0 mi SSE 5.8 mph - N/A   Overcast
6:10 AM 39.2 °F 35.0 °F 28.4 °F 65% 30.12 in 10.0 mi SSE 5.8 mph - N/A   Overcast
6:30 AM 39.2 °F 33.6 °F 28.4 °F 65% 30.11 in 10.0 mi South 8.1 mph - N/A   Overcast
6:50 AM 37.4 °F 30.8 °F 30.2 °F 75% 30.11 in 10.0 mi SSE 9.2 mph - N/A   Overcast
7:10 AM 39.2 °F 33.0 °F 30.2 °F 70% 30.11 in 10.0 mi SSE 9.2 mph - N/A   Scattered Clouds
7:30 AM 41.0 °F 35.2 °F 32.0 °F 70% 30.11 in 10.0 mi SSE 9.2 mph - N/A   Clear
7:50 AM 42.8 °F 37.0 °F 32.0 °F 66% 30.11 in 10.0 mi SSE 10.4 mph - N/A   Clear
8:10 AM 44.6 °F 38.4 °F 32.0 °F 61% 30.10 in 10.0 mi SE 12.7 mph - N/A   Clear
8:30 AM 46.4 °F 40.4 °F 32.0 °F 57% 30.10 in 10.0 mi SSE 13.8 mph - N/A   Clear
8:50 AM 48.2 °F - 35.6 °F 62% 30.10 in 10.0 mi SSE 13.8 mph - N/A   Clear
9:10 AM 50.0 °F - 35.6 °F 58% 30.10 in 10.0 mi South 16.1 mph - N/A   Clear
9:30 AM 53.6 °F - 35.6 °F 51% 30.09 in 10.0 mi South 18.4 mph 26.5 mph N/A   Clear
9:50 AM 55.4 °F - 33.8 °F 44% 30.09 in 10.0 mi South 20.7 mph 32.2 mph N/A   Clear
10:10 AM 55.4 °F - 33.8 °F 44% 30.08 in 10.0 mi South 21.9 mph 27.6 mph N/A   Clear
10:30 AM 57.2 °F - 33.8 °F 41% 30.07 in 10.0 mi South 25.3 mph - N/A   Clear
10:50 AM 59.0 °F - 32.0 °F 36% 30.07 in 10.0 mi South 27.6 mph - N/A   Clear
11:10 AM 59.0 °F - 32.0 °F 36% 30.05 in 10.0 mi South 26.5 mph 34.5 mph N/A   Partly Cloudy
11:30 AM 59.0 °F - 32.0 °F 36% 30.04 in 10.0 mi South 25.3 mph 33.4 mph N/A   Scattered Clouds
11:50 AM 60.8 °F - 32.0 °F 34% 30.02 in 10.0 mi SSE 26.5 mph 33.4 mph N/A   Mostly Cloudy
12:10 PM 62.6 °F - 32.0 °F 32% 30.00 in 10.0 mi South 25.3 mph 33.4 mph N/A   Partly Cloudy
12:30 PM 62.6 °F - 32.0 °F 32% 29.99 in 10.0 mi South 24.2 mph 34.5 mph N/A   Partly Cloudy
12:50 PM 62.6 °F - 32.0 °F 32% 29.97 in 10.0 mi South 24.2 mph 34.5 mph N/A   Mostly Cloudy
1:10 PM 62.6 °F - 32.0 °F 32% 29.95 in 10.0 mi South 26.5 mph 38.0 mph N/A   Partly Cloudy
1:30 PM 64.4 °F - 32.0 °F 30% 29.93 in 10.0 mi South 26.5 mph 35.7 mph N/A   Clear
1:50 PM 64.4 °F - 32.0 °F 30% 29.92 in 10.0 mi South 28.8 mph 34.5 mph N/A   Clear
2:10 PM 64.4 °F - 32.0 °F 30% 29.92 in 10.0 mi South 27.6 mph 38.0 mph N/A   Clear
2:30 PM 64.4 °F - 33.8 °F 32% 29.91 in 10.0 mi South 24.2 mph 33.4 mph N/A   Clear
2:50 PM 62.6 °F - 33.8 °F 34% 29.89 in 10.0 mi South 26.5 mph 34.5 mph N/A   Clear
3:10 PM 62.6 °F - 33.8 °F 34% 29.87 in 10.0 mi South 25.3 mph 33.4 mph N/A   Clear
3:30 PM 62.6 °F - 35.6 °F 37% 29.87 in 10.0 mi South 27.6 mph 35.7 mph N/A   Clear
3:50 PM 60.8 °F - 35.6 °F 39% 29.86 in 10.0 mi South 25.3 mph 35.7 mph N/A   Clear
4:10 PM 59.0 °F - 33.8 °F 39% 29.87 in 10.0 mi South 23.0 mph 28.8 mph N/A   Clear
4:30 PM 59.0 °F - 33.8 °F 39% 29.86 in 10.0 mi SSE 25.3 mph 31.1 mph N/A   Clear
4:50 PM 59.0 °F - 32.0 °F 36% 29.86 in 10.0 mi South 24.2 mph 29.9 mph N/A   Clear
5:10 PM 57.2 °F - 32.0 °F 38% 29.87 in 10.0 mi South 23.0 mph 28.8 mph N/A   Clear
5:30 PM 55.4 °F - 32.0 °F 41% 29.87 in 10.0 mi South 23.0 mph 26.5 mph N/A   Clear
5:50 PM 55.4 °F - 32.0 °F 41% 29.87 in 10.0 mi SSE 21.9 mph 27.6 mph N/A   Partly Cloudy
6:10 PM 55.4 °F - 32.0 °F 41% 29.87 in 10.0 mi SSE 21.9 mph - N/A   Scattered Clouds
6:30 PM 53.6 °F - 32.0 °F 44% 29.87 in 10.0 mi SSE 19.6 mph 28.8 mph N/A   Mostly Cloudy
6:50 PM 53.6 °F - 32.0 °F 44% 29.87 in 10.0 mi South 21.9 mph 26.5 mph N/A   Mostly Cloudy
7:10 PM 53.6 °F - 32.0 °F 44% 29.86 in 10.0 mi South 21.9 mph 27.6 mph N/A   Scattered Clouds
7:30 PM 53.6 °F - 32.0 °F 44% 29.86 in 10.0 mi South 23.0 mph 29.9 mph N/A   Partly Cloudy
7:50 PM 53.6 °F - 32.0 °F 44% 29.85 in 10.0 mi South 24.2 mph 31.1 mph N/A   Partly Cloudy
8:10 PM 51.8 °F - 30.2 °F 44% 29.85 in 10.0 mi South 24.2 mph 31.1 mph N/A   Scattered Clouds
8:30 PM 51.8 °F - 30.2 °F 44% 29.86 in 10.0 mi South 25.3 mph 31.1 mph N/A   Partly Cloudy
8:50 PM 50.0 °F - 30.2 °F 47% 29.85 in 10.0 mi South 25.3 mph - N/A   Partly Cloudy
9:10 PM 50.0 °F - 30.2 °F 47% 29.85 in 10.0 mi South 24.2 mph 28.8 mph N/A   Partly Cloudy
9:30 PM 50.0 °F - 28.4 °F 43% 29.85 in 10.0 mi South 21.9 mph 32.2 mph N/A   Partly Cloudy
9:50 PM 50.0 °F - 28.4 °F 43% 29.85 in 10.0 mi South 25.3 mph 28.8 mph N/A   Scattered Clouds
10:10 PM 50.0 °F - 28.4 °F 43% 29.85 in 10.0 mi South 21.9 mph 28.8 mph N/A   Partly Cloudy
10:30 PM 50.0 °F - 28.4 °F 43% 29.84 in 10.0 mi South 25.3 mph 28.8 mph N/A   Scattered Clouds
10:50 PM 50.0 °F - 28.4 °F 43% 29.84 in 10.0 mi South 25.3 mph 29.9 mph N/A   Mostly Cloudy
11:10 PM 50.0 °F - 28.4 °F 43% 29.84 in 10.0 mi South 24.2 mph 32.2 mph N/A   Mostly Cloudy
11:30 PM 50.0 °F - 28.4 °F 43% 29.84 in 10.0 mi South 23.0 mph 31.1 mph N/A   Mostly Cloudy
11:50 PM 50.0 °F - 28.4 °F 43% 29.83 in 10.0 mi South 23.0 mph 28.8 mph N/A   Overcast